{"data":{"norad_id":63082,"epoch":"2026-09-21T14:32:51.551808Z","epoch_age_seconds":66710,"freshness":"FRESH","line1":"1 63082U 25037F   26264.60615222  .00007857  00000+0  27752-3 0  9992","line2":"2 63082  70.0009 217.8775 0002760 272.2423  87.8436 15.29575894 87951","mean_motion":15.29575894,"eccentricity":0.000276,"inclination_deg":70.0009,"raan_deg":217.8775,"arg_perigee_deg":272.2423,"mean_anomaly_deg":87.8436,"bstar":0.00027752,"rev_number":8795,"period_min":94.143743089089,"perigee_km":475.1871313663,"apogee_km":478.97121069271,"semimajor_km":6855.2161710295,"source":"CELESTRAK","updated_at":"2026-09-22T09:00:49.758006Z"}}